Weather History for KCMI - September, 2012

Change the Weather History Date:

Sunday, September 30, 2012

  Actual Average Record
Temperature  
Mean Temperature 61 °F 60 °F  
Max Temperature 73 °F 72 °F 87 °F (2002)
Min Temperature 48 °F 47 °F 35 °F (2003)
Degree Days  
Heating Degree Days 4 7  
Month to date heating degree days 87 83  
Since 1 July heating degree days 89 92  
Cooling Degree Days 0 2  
Month to date cooling degree days 98 98  
Year to date cooling degree days 1284 925  
Growing Degree Days 10 (Base 50)    
Moisture  
Dew Point 45 °F    
Average Humidity 60    
Maximum Humidity 86    
Minimum Humidity 34    
Precipitation  
Precipitation 0.00 in 0.10 in 0.23 in (1998)
Month to date precipitation 5.94 3.28  
Year to date precipitation 21.17 30.56  
Sea Level Pressure  
Sea Level Pressure 29.92 in    
Wind  
Wind Speed 10 mph (NNE)    
Max Wind Speed 16 mph    
Max Gust Speed 22 mph    
Visibility 10 miles    
Events      
T = Trace of Precipitation, MM = Missing Value Source: NWS Daily Summary

Daily Weather History Graph

Daily Weather History Graph

Search for Another Location

Airport or City:

Trip Planner

Search our weather history database for the weather conditions in past years. The results will help you decide how hot, cold, wet, or windy it might be!

Date:

Astronomy

Sep. 30, 2012 Rise Set
Actual Time 6:48 AM CDT 6:36 PM CDT
Civil Twilight 6:21 AM CDT 7:03 PM CDT
Nautical Twilight 5:50 AM CDT 7:34 PM CDT
Astronomical Twilight 5:18 AM CDT 8:06 PM CDT
Moon 6:40 PM CDT (9/30) 7:19 AM CDT (9/30)
Length of Visible Light 12h 41m
Length of Day
11h 47m
Full, 100% of the Moon is Illuminated
Sep 30
Full
Oct 8
Last Quarter
Oct 15
New
Oct 21
First Quarter
Oct 29
Full

Hourly Weather History & Observations

Time (CDT) Temp. Dew Point Humidity Pressure Visibility Wind Dir Wind Speed Gust Speed Precip Events Conditions
12:53 AM 52.0 °F 46.0 °F 80% 29.95 in 10.0 mi North 10.4 mph - N/A   Clear
1:53 AM 52.0 °F 45.0 °F 77% 29.94 in 10.0 mi West 5.8 mph - N/A   Clear
2:53 AM 50.0 °F 45.0 °F 83% 29.93 in 10.0 mi West 5.8 mph - N/A   Clear
3:53 AM 48.9 °F 45.0 °F 86% 29.92 in 10.0 mi NNW 5.8 mph - N/A   Clear
4:53 AM 51.1 °F 43.0 °F 74% 29.91 in 10.0 mi North 3.5 mph - N/A   Clear
5:53 AM 48.9 °F 44.1 °F 83% 29.91 in 10.0 mi North 9.2 mph - N/A   Clear
6:53 AM 54.0 °F 48.0 °F 80% 29.91 in 10.0 mi NNE 12.7 mph - N/A   Clear
7:53 AM 55.9 °F 48.0 °F 75% 29.93 in 10.0 mi NNE 11.5 mph - N/A   Clear
8:53 AM 60.1 °F 48.9 °F 67% 29.95 in 10.0 mi NNE 12.7 mph - N/A   Clear
9:53 AM 64.9 °F 48.9 °F 56% 29.95 in 10.0 mi NNE 12.7 mph - N/A   Clear
10:53 AM 68.0 °F 46.0 °F 45% 29.94 in 10.0 mi NE 13.8 mph 21.9 mph N/A   Clear
11:53 AM 70.0 °F 46.0 °F 42% 29.94 in 10.0 mi NNE 12.7 mph 17.3 mph N/A   Clear
12:53 PM 72.0 °F 45.0 °F 38% 29.92 in 10.0 mi NE 12.7 mph 19.6 mph N/A   Clear
1:53 PM 72.0 °F 42.1 °F 34% 29.89 in 10.0 mi NNE 13.8 mph 21.9 mph N/A   Clear
2:53 PM 72.0 °F 42.1 °F 34% 29.88 in 10.0 mi NNE 11.5 mph 16.1 mph N/A   Clear
3:53 PM 71.1 °F 41.0 °F 34% 29.88 in 10.0 mi NE 10.4 mph - N/A   Clear
4:53 PM 70.0 °F 41.0 °F 35% 29.89 in 10.0 mi NE 8.1 mph - N/A   Clear
5:53 PM 66.9 °F 43.0 °F 42% 29.89 in 10.0 mi NNE 6.9 mph - N/A   Clear
6:53 PM 63.0 °F 43.0 °F 48% 29.89 in 10.0 mi NNE 5.8 mph - N/A   Clear
7:53 PM 60.1 °F 44.1 °F 55% 29.90 in 10.0 mi NNE 6.9 mph - N/A   Clear
8:53 PM 61.0 °F 44.1 °F 54% 29.91 in 10.0 mi NNE 10.4 mph - N/A   Clear
9:53 PM 57.9 °F 45.0 °F 62% 29.92 in 10.0 mi NNE 11.5 mph - N/A   Clear
10:53 PM 55.9 °F 45.0 °F 67% 29.93 in 10.0 mi NE 8.1 mph - N/A   Clear
11:53 PM 55.0 °F 46.0 °F 72% 29.91 in 10.0 mi NE 6.9 mph - N/A   Clear